Weather History for KCLT - March, 2013

Change the Weather History Date:

Wednesday, March 20, 2013

  Actual Average Record
Temperature  
Mean Temperature 48 °F 52 °F  
Max Temperature 56 °F 64 °F 85 °F (1948)
Min Temperature 40 °F 40 °F 23 °F (1923)
Degree Days  
Heating Degree Days 17 13  
Month to date heating degree days 360 309  
Since 1 July heating degree days 2765 3008  
Cooling Degree Days 0 0  
Month to date cooling degree days 3 0  
Year to date cooling degree days 3 0  
Moisture  
Dew Point 15 °F    
Average Humidity 30    
Maximum Humidity 40    
Minimum Humidity 19    
Precipitation  
Precipitation 0.00 in 0.12 in 2.11 in (1895)
Month to date precipitation 2.03 2.67  
Year to date precipitation 9.78 9.40  
Snow  
Snow 0.00 in 0.00 in 1.30 in (1915)
Month to date snowfall T 0.5  
Since 1 July snowfall 2.7 4.2  
Snow Depth 0.00 in    
Sea Level Pressure  
Sea Level Pressure 29.98 in    
Wind  
Wind Speed 7 mph (NW)    
Max Wind Speed 20 mph    
Max Gust Speed 28 mph    
Visibility 10 miles    
Events      
T = Trace of Precipitation, MM = Missing Value Source: NWS Daily Summary

Daily Weather History Graph

Daily Weather History Graph

Search for Another Location

Airport or City:

Trip Planner

Search our weather history database for the weather conditions in past years. The results will help you decide how hot, cold, wet, or windy it might be!

Date:

Astronomy

Mar. 20, 2013 Rise Set
Actual Time 7:27 AM EDT 7:35 PM EDT
Civil Twilight 7:01 AM EDT 8:01 PM EDT
Nautical Twilight 6:32 AM EDT 8:30 PM EDT
Astronomical Twilight 6:02 AM EDT 9:00 PM EDT
Moon 1:21 PM EDT (3/20) 2:53 AM EDT (3/20)
Length of Visible Light 12h 59m
Length of Day
12h 08m
First Quarter, 59% of the Moon is Illuminated
Mar 20
First Quarter
Mar 27
Full
Apr 3
Last Quarter
Apr 10
New
Apr 18
First Quarter

Hourly Weather History & Observations

Time (EDT) Temp. Windchill Dew Point Humidity Pressure Visibility Wind Dir Wind Speed Gust Speed Precip Events Conditions
12:52 AM 48.9 °F - 12.0 °F 23% 30.05 in 10.0 mi NNW 9.2 mph - N/A   Mostly Cloudy
1:52 AM 46.0 °F 43.1 °F 12.9 °F 26% 30.05 in 10.0 mi NNW 5.8 mph - N/A   Mostly Cloudy
2:52 AM 45.0 °F 41.8 °F 14.0 °F 29% 30.04 in 10.0 mi NNW 5.8 mph - N/A   Overcast
3:52 AM 45.0 °F 41.8 °F 12.9 °F 27% 30.03 in 10.0 mi NNW 5.8 mph - N/A   Overcast
4:52 AM 43.0 °F 41.3 °F 15.1 °F 32% 30.02 in 10.0 mi North 3.5 mph - N/A   Overcast
5:52 AM 41.0 °F 36.4 °F 14.0 °F 33% 30.04 in 10.0 mi North 6.9 mph - N/A   Mostly Cloudy
6:52 AM 43.0 °F 39.5 °F 10.9 °F 27% 30.07 in 10.0 mi NNW 5.8 mph - N/A   Mostly Cloudy
7:52 AM 42.1 °F 39.2 °F 12.9 °F 31% 30.09 in 10.0 mi North 4.6 mph - N/A   Mostly Cloudy
8:52 AM 46.0 °F 41.4 °F 10.0 °F 23% 30.11 in 10.0 mi North 9.2 mph - N/A   Overcast
9:52 AM 46.9 °F - 9.0 °F 21% 30.12 in 10.0 mi North 12.7 mph - N/A   Overcast
10:52 AM 48.0 °F - 10.0 °F 22% 30.12 in 10.0 mi North 6.9 mph - N/A   Overcast
11:52 AM 46.9 °F - 9.0 °F 21% 30.11 in 10.0 mi Calm Calm - N/A   Overcast
12:52 PM 48.9 °F - 10.0 °F 21% 30.08 in 10.0 mi Calm Calm - N/A   Mostly Cloudy
1:52 PM 52.0 °F - 14.0 °F 22% 30.03 in 10.0 mi South 9.2 mph - N/A   Mostly Cloudy
2:52 PM 54.0 °F - 12.9 °F 20% 29.97 in 10.0 mi Variable 5.8 mph - N/A   Mostly Cloudy
3:52 PM 55.0 °F - 14.0 °F 20% 29.91 in 10.0 mi SSW 5.8 mph - N/A   Mostly Cloudy
4:52 PM 55.0 °F - 15.1 °F 21% 29.88 in 10.0 mi South 9.2 mph 18.4 mph N/A   Mostly Cloudy
5:52 PM 55.0 °F - 17.1 °F 23% 29.87 in 10.0 mi SSW 11.5 mph - N/A   Mostly Cloudy
6:52 PM 53.1 °F - 18.0 °F 25% 29.85 in 10.0 mi SSW 9.2 mph - N/A   Mostly Cloudy
7:52 PM 48.9 °F - 19.0 °F 31% 29.84 in 8.0 mi South 5.8 mph - N/A   Mostly Cloudy
8:52 PM 50.0 °F - 19.0 °F 29% 29.82 in 9.0 mi SSE 8.1 mph - N/A   Mostly Cloudy
9:52 PM 48.2 °F - 21.2 °F 34% 29.80 in 10.0 mi South 5.8 mph - N/A   Overcast
10:52 PM 48.0 °F - 23.0 °F 37% 29.81 in 10.0 mi NW 8.1 mph - N/A   Mostly Cloudy
11:52 PM 45.0 °F 43.5 °F 21.9 °F 40% 29.79 in 10.0 mi West 3.5 mph - N/A   Partly Cloudy